{"data":{"norad_id":69049,"epoch":"2026-05-24T22:25:35.020704Z","epoch_age_seconds":77720,"freshness":"FRESH","line1":"1 69049U 26102A   26144.93443311  .00014030  00000+0  17335-3 0  9993","line2":"2 69049  41.4678 103.4027 0011057 275.7252  84.2326 15.59794200289546","mean_motion":15.597942,"eccentricity":0.0011057,"inclination_deg":41.4678,"raan_deg":103.4027,"arg_perigee_deg":275.7252,"mean_anomaly_deg":84.2326,"bstar":0.00017335,"rev_number":28954,"period_min":92.319871429192,"perigee_km":380.77059257619,"apogee_km":395.73378562897,"semimajor_km":6766.3891891026,"source":"CELESTRAK","updated_at":"2026-05-25T13:38:09.048553Z"}}